Retour au catalogue

O3B FM14

ActifCommunicationsMEO
NORAD 43233·PAYLOAD·🇱🇺 Luxembourg

Lancé Mar 9, 2018 depuis Guiana Space Centre

Loading…

Prochains Passages (prochaines 24 heures)

TLE

FraisSource: CelesTrak SupGP

Époque: Sep 14, 2026, 16:59 UTC

1 43233C 18024C   26257.70833333  .00000000  00000+0  00000+0 0  2577
2 43233   0.0584   1.2174 0002830 171.1514 136.2616  5.00115978    14

Suivez O3B FM14 en temps réel avec AllMySat

Download on the App Store